{"data":{"norad_id":64321,"intl_designator":"2025-124E","name":"STARLINK-11596 [DTC]","alt_names":[],"object_type":"PAYLOAD","status":"ACTIVE","operator":null,"country":"US","launch_date":"2025-06-10","launch_site_code":"AFETR","launch_vehicle":null,"mission":null,"orbit_class":"UNKNOWN","rcs_meters":null,"size_class":null,"mass_kg":null,"dimensions":null,"purposes":["comms"],"wikipedia_slug":null,"has_3d_model":false,"image_url":null,"decayed_at":null,"tle_current":{"epoch":"2026-05-24T20:57:24.618240Z","epoch_age_seconds":92762,"freshness":"FRESH","line1":"1 64321U 25124E   26144.87320160  .00184262  00000+0  14010-2 0  9994","line2":"2 64321  42.9984 290.2235 0001379 271.3044  88.7666 15.70956062 54818","mean_motion":15.70956062,"eccentricity":0.0001379,"inclination_deg":42.9984,"raan_deg":290.2235,"arg_perigee_deg":271.3044,"mean_anomaly_deg":88.7666,"bstar":0.001401,"rev_number":5481,"period_min":91.663925862237,"perigee_km":355.23469505567,"apogee_km":357.0920150936,"semimajor_km":6734.3003550746,"source":"CELESTRAK","updated_at":"2026-05-25T13:38:20.394047Z"}}}